Tiempo cada hora Aahalden

Hoy, 25 Octubre, Domingo

Tiempo Temperatura Precipitaciones Viento Presión Humedad
00:00 +8°C° 0 mm 1 mps 709 mmHg 88%
01:00 +8°C° 0 mm 1 mps 708 mmHg 87%
02:00 +8°C° 0 mm 1 mps 708 mmHg 86%
03:00 +8°C° 0 mm 1 mps 708 mmHg 85%
04:00 +7°C° 0 mm 1 mps 707 mmHg 84%
05:00 +7°C° 0 mm 1 mps 707 mmHg 84%
06:00 +7°C° 0 mm 1 mps 707 mmHg 84%
07:00 +7°C° 0 mm 1 mps 707 mmHg 84%
08:00 +9°C° 0 mm 1 mps 707 mmHg 79%
09:00 +11°C° 0 mm 1 mps 707 mmHg 74%
10:00 +13°C° 0 mm 1 mps 707 mmHg 69%
11:00 +14°C° 0 mm 1 mps 706 mmHg 64%
12:00 +16°C° 0 mm 1 mps 706 mmHg 59%
13:00 +18°C° 0 mm 1 mps 705 mmHg 54%
14:00 +18°C° 0 mm 1 mps 705 mmHg 59%
15:00 +16°C° 0 mm 1 mps 705 mmHg 64%
16:00 +15°C° 0 mm 1 mps 704 mmHg 69%
17:00 +14°C° 0 mm 1 mps 704 mmHg 73%
18:00 +12°C° 0 mm 1 mps 704 mmHg 77%
19:00 +9°C° 0 mm 2 mps 704 mmHg 80%
20:00 +9°C° 0 mm 2 mps 704 mmHg 81%
21:00 +9°C° 0 mm 1 mps 704 mmHg 81%
22:00 +9°C° 0 mm 1 mps 704 mmHg 82%
23:00 +9°C° 0 mm 1 mps 704 mmHg 85%

Mañana, 26 Octubre, Lunes

Tiempo Temperatura Precipitaciones Viento Presión Humedad
00:00 +9°C° 0 mm 1 mps 703 mmHg 89%
01:00 +8°C° 0 mm 1 mps 703 mmHg 92%
02:00 +8°C° 0.4 mm 1 mps 703 mmHg 93%
03:00 +9°C° 0.4 mm 1 mps 703 mmHg 94%
04:00 +9°C° 0.4 mm 1 mps 703 mmHg 95%
05:00 +8°C° 2.3 mm 1 mps 703 mmHg 96%
06:00 +8°C° 2.3 mm 1 mps 703 mmHg 96%
07:00 +7°C° 2.3 mm 1 mps 702 mmHg 97%
08:00 +7°C° 1.9 mm 1 mps 703 mmHg 96%
09:00 +7°C° 1.9 mm 1 mps 703 mmHg 96%
10:00 +7°C° 1.9 mm 1 mps 703 mmHg 95%
11:00 +8°C° 1.1 mm 1 mps 703 mmHg 95%
12:00 +8°C° 1.1 mm 1 mps 703 mmHg 94%
13:00 +8°C° 1.1 mm 1 mps 703 mmHg 93%
14:00 +8°C° 0.9 mm 1 mps 702 mmHg 94%
15:00 +8°C° 0.9 mm 1 mps 702 mmHg 94%
16:00 +8°C° 0.9 mm 1 mps 702 mmHg 94%
17:00 +7°C° 0.9 mm 1 mps 703 mmHg 95%
18:00 +7°C° 0.9 mm 1 mps 703 mmHg 95%
19:00 +7°C° 0.9 mm 1 mps 704 mmHg 95%
20:00 +7°C° 0.7 mm 1 mps 704 mmHg 95%
21:00 +7°C° 0.7 mm 1 mps 704 mmHg 95%
22:00 +7°C° 0.7 mm 1 mps 704 mmHg 95%
23:00 +7°C° 0.4 mm 1 mps 704 mmHg 95%

Pasado mañana, 27 Octubre, Martes

Tiempo Temperatura Precipitaciones Viento Presión Humedad
00:00 +6°C° 0.4 mm 1 mps 705 mmHg 95%
01:00 +6°C° 0.4 mm 1 mps 705 mmHg 94%
02:00 +6°C° 0 mm 1 mps 705 mmHg 93%
03:00 +6°C° 0 mm 1 mps 704 mmHg 92%
04:00 +5°C° 0 mm 1 mps 704 mmHg 92%
05:00 +5°C° 0 mm 1 mps 704 mmHg 91%
06:00 +5°C° 0 mm 1 mps 705 mmHg 91%
07:00 +5°C° 0 mm 1 mps 705 mmHg 91%
08:00 +6°C° 0 mm 1 mps 705 mmHg 88%
09:00 +7°C° 0 mm 1 mps 705 mmHg 86%
10:00 +8°C° 0 mm 2 mps 706 mmHg 83%
11:00 +8°C° 0.1 mm 2 mps 706 mmHg 81%
12:00 +9°C° 0.1 mm 2 mps 706 mmHg 78%
13:00 +9°C° 0.1 mm 2 mps 706 mmHg 76%
14:00 +9°C° 0.1 mm 2 mps 706 mmHg 77%
15:00 +10°C° 0.1 mm 1 mps 706 mmHg 79%
16:00 +10°C° 0.1 mm 1 mps 706 mmHg 80%
17:00 +8°C° 0 mm 1 mps 706 mmHg 83%
18:00 +7°C° 0 mm 1 mps 706 mmHg 85%
19:00 +4°C° 0 mm 2 mps 706 mmHg 88%
20:00 +4°C° 0 mm 2 mps 707 mmHg 85%
21:00 +4°C° 0 mm 2 mps 707 mmHg 83%
22:00 +3°C° 0 mm 2 mps 707 mmHg 80%
23:00 +4°C° 0 mm 2 mps 707 mmHg 77%

28 Octubre, Miércoles

Tiempo Temperatura Precipitaciones Viento Presión Humedad
00:00 +4°C° 0 mm 2 mps 707 mmHg 74%
01:00 +4°C° 0 mm 2 mps 707 mmHg 71%
02:00 +5°C° 0 mm 2 mps 707 mmHg 69%
03:00 +6°C° 0 mm 1 mps 707 mmHg 67%
04:00 +7°C° 0 mm 1 mps 707 mmHg 65%
05:00 +7°C° 0 mm 1 mps 707 mmHg 66%
06:00 +7°C° 0 mm 1 mps 707 mmHg 67%
07:00 +8°C° 0 mm 1 mps 707 mmHg 67%
08:00 +9°C° 0 mm 1 mps 707 mmHg 67%
09:00 +10°C° 0 mm 1 mps 708 mmHg 66%
10:00 +11°C° 0 mm 1 mps 708 mmHg 65%
11:00 +12°C° 0 mm 1 mps 708 mmHg 64%
12:00 +14°C° 0 mm 2 mps 708 mmHg 63%
13:00 +15°C° 0 mm 2 mps 708 mmHg 63%
14:00 +14°C° 0 mm 2 mps 708 mmHg 68%
15:00 +14°C° 0 mm 2 mps 708 mmHg 73%
16:00 +13°C° 0 mm 2 mps 708 mmHg 78%
17:00 +12°C° 0 mm 2 mps 708 mmHg 79%
18:00 +10°C° 0 mm 2 mps 708 mmHg 81%
19:00 +9°C° 0 mm 2 mps 709 mmHg 82%
20:00 +9°C° 0.1 mm 2 mps 709 mmHg 82%
21:00 +9°C° 0.1 mm 2 mps 709 mmHg 81%
22:00 +9°C° 0.1 mm 2 mps 710 mmHg 81%
23:00 +9°C° 0.2 mm 2 mps 710 mmHg 82%

29 Octubre, Jueves

Tiempo Temperatura Precipitaciones Viento Presión Humedad
00:00 +9°C° 0.2 mm 2 mps 710 mmHg 83%
01:00 +8°C° 0.2 mm 2 mps 710 mmHg 83%
02:00 +8°C° 0 mm 2 mps 710 mmHg 83%
03:00 +8°C° 0 mm 2 mps 710 mmHg 83%
04:00 +9°C° 0 mm 2 mps 710 mmHg 83%
05:00 +8°C° 0 mm 2 mps 710 mmHg 85%
06:00 +9°C° 0 mm 1 mps 711 mmHg 86%
07:00 +9°C° 0 mm 1 mps 711 mmHg 88%
08:00 +10°C° 0 mm 1 mps 711 mmHg 87%
09:00 +10°C° 0 mm 1 mps 712 mmHg 86%
10:00 +11°C° 0 mm 1 mps 712 mmHg 85%
11:00 +12°C° 0 mm 2 mps 712 mmHg 81%
12:00 +13°C° 0 mm 2 mps 712 mmHg 77%
13:00 +14°C° 0 mm 2 mps 713 mmHg 73%
14:00 +13°C° 0 mm 2 mps 713 mmHg 76%
15:00 +13°C° 0 mm 2 mps 713 mmHg 78%
16:00 +13°C° 0 mm 1 mps 713 mmHg 81%
17:00 +11°C° 0 mm 1 mps 713 mmHg 82%
18:00 +10°C° 0 mm 1 mps 713 mmHg 84%
19:00 +9°C° 0 mm 1 mps 714 mmHg 86%
20:00 +9°C° 0 mm 1 mps 714 mmHg 84%
21:00 +9°C° 0 mm 1 mps 714 mmHg 82%
22:00 +9°C° 0 mm 1 mps 714 mmHg 80%
23:00 +9°C° 0 mm 1 mps 714 mmHg 79%

30 Octubre, Viernes

Tiempo Temperatura Precipitaciones Viento Presión Humedad
00:00 +9°C° 0 mm 1 mps 714 mmHg 78%
01:00 +9°C° 0 mm 1 mps 714 mmHg 77%
02:00 +9°C° 0 mm 1 mps 714 mmHg 78%
03:00 +8°C° 0 mm 1 mps 714 mmHg 78%
04:00 +8°C° 0 mm 1 mps 714 mmHg 78%
05:00 +8°C° 0 mm 1 mps 714 mmHg 78%
06:00 +8°C° 0 mm 1 mps 714 mmHg 77%
07:00 +8°C° 0 mm 1 mps 714 mmHg 76%
08:00 +10°C° 0 mm 1 mps 714 mmHg 74%
09:00 +12°C° 0 mm 1 mps 714 mmHg 71%
10:00 +13°C° 0 mm 0 mps 714 mmHg 68%
11:00 +14°C° 0 mm 0 mps 714 mmHg 65%
12:00 +15°C° 0 mm 0 mps 714 mmHg 63%
13:00 +16°C° 0 mm 0 mps 714 mmHg 60%
14:00 +16°C° 0 mm 1 mps 714 mmHg 65%
15:00 +16°C° 0 mm 1 mps 714 mmHg 69%
16:00 +15°C° 0 mm 1 mps 713 mmHg 74%
17:00 +13°C° 0 mm 1 mps 713 mmHg 76%
18:00 +12°C° 0 mm 2 mps 713 mmHg 78%
19:00 +9°C° 0 mm 2 mps 713 mmHg 79%
20:00 +9°C° 0 mm 2 mps 713 mmHg 79%
21:00 +9°C° 0 mm 2 mps 713 mmHg 78%
22:00 +9°C° 0 mm 1 mps 713 mmHg 78%
23:00 +9°C° 0 mm 1 mps 713 mmHg 79%
Mostrar más

Necesitamos Su Consentimiento

Meteoprog y nuestros Proveedores de Servicios pueden almacenar y acceder a sus datos personales como cookies, identificadores de dispositivo u otras tecnologías similares de su dispositivo y procesar dichos datos para personalizar contenido y anuncios, además de ofrecer funciones de redes sociales y analizar el tráfico.

  • Almacenar y/o acceder a información en su dispositivo

    Se puede almacenar o acceder a cookies, identificadores de dispositivo u otra información de su dispositivo para los fines anteriormente indicados.

  • Anuncios y contenido personalizados, medición de anuncios y contenido, percepciones del público, y desarrollo de productos

    Los anuncios y el contenido pueden personalizarse en base a su perfil. Se pueden añadir más datos para personalizar mejor los anuncios y contenidos. Se puede medir el rendimiento de los anuncios y contenidos. Se puede obtener la percepción sobre el público que ha visto los anuncios y contenidos. Dichos datos pueden usarse para desarrollar o mejorar la experiencia del usuario, sistemas y software.

Al hacer clic en ‘Estoy De Acuerdo’ usted permitirá el uso de las cookies, identificadores de dispositivo, balizas web u otras tecnologías similares indicadas. Su configuración puede cambiarse desde el navegador de su dispositivo.

Para ciertos fines, los intereses legítimos pueden ser considerados por encima del consentimiento. Puede leer más sobre ello en nuestra Política de Privacidad y Cookies.